This demonstration page uses our WeatherBlox Daily Observations layout. Learn more.

Left ArrowRight Arrow

Hourly Observations for October 6, 2015

Temp ( °F °C ) Dew Point ( °F °C ) Humidity (%) Winds ( mph kmh ) Pressure ( in mb ) Visibility ( mi km ) Precip ( " mm )
12:53 am 00:53 Clear 37 2.8 35 1.7 93 93 SE 3 6 30.19 1023 10 16 0.00 0.00
1:53 am 01:53 Clear 36 2.2 35 1.7 97 97 E 3 6 30.19 1023 10 16 0.00 0.00
2:53 am 02:53 Clear 36 2.2 35 1.7 97 97 E 5 7 30.19 1022 10 16 0.00 0.00
3:53 am 03:53 Clear 33 0.6 32 0 96 96 Calm 30.19 1022 10 16 0.00 0.00
4:53 am 04:53 Clear 34 1.1 33 0.6 97 97 E 3 6 30.18 1022 10 16 0.00 0.00
5:53 am 05:53 Clear 36 2.2 34 1.1 93 93 ENE 10 17 30.18 1022 10 16 0.00 0.00
6:53 am 06:53 Clear 36 2.2 34 1.1 93 93 E 7 11 30.19 1022 10 16 0.00 0.00
7:53 am 07:53 Sunny 35 1.7 34 1.1 96 96 SE 5 7 30.19 1023 10 16 0.00 0.00
8:50 am 08:50 Mostly Sunny 37 3 36 2 93 93 Calm 30.21 1023 10 16 0.00 0.00
8:53 am 08:53 Mostly Sunny 38 3.3 36 2.2 93 93 Calm 30.21 1023 10 16 0.00 0.00
9:53 am 09:53 Sunny 41 5 38 3.3 89 89 E 3 6 30.20 1023 10 16 0.00 0.00
10:53 am 10:53 Sunny 48 8.9 42 5.6 80 80 E 6 9 30.18 1022 10 16 0.00 0.00
11:53 am 11:53 Sunny 54 12.2 46 7.8 75 75 E 7 11 30.15 1021 10 16 0.00 0.00
12:53 pm 12:53 Sunny 60 15.6 47 8.3 62 62 NE 10 17 30.11 1020 10 16 0.00 0.00
1:53 pm 13:53 Sunny 64 17.8 49 9.4 58 58 ENE 13 20 30.07 1018 10 16 0.00 0.00
2:53 pm 14:53 Sunny 66 18.9 48 8.9 52 52 ENE 13 20 30.04 1017 10 16 0.00 0.00
3:53 pm 15:53 Sunny 67 19.4 47 8.3 49 49 ENE 12 19 30.02 1017 10 16 0.00 0.00
4:53 pm 16:53 Sunny 66 18.9 46 7.8 49 49 NE 7 11 30.00 1016 10 16 0.00 0.00
5:53 pm 17:53 Sunny 66 18.9 48 8.9 52 52 Calm 29.98 1015 10 16 0.00 0.00
6:53 pm 18:53 Clear 59 15 49 9.4 69 69 Calm 29.98 1015 10 16 0.00 0.00
7:53 pm 19:53 Clear 52 11.1 47 8.3 83 83 ESE 3 6 29.98 1015 10 16 0.00 0.00
8:53 pm 20:53 Clear 50 10 46 7.8 86 86 Calm 29.98 1015 10 16 0.00 0.00
9:53 pm 21:53 Clear 45 7.2 43 6.1 93 93 Calm 29.98 1015 10 16 0.00 0.00
10:53 pm 22:53 Clear 47 8.3 43 6.1 86 86 Calm 29.94 1014 10 16 0.00 0.00
11:53 pm 23:53 Clear 44 6.7 42 5.6 93 93 Calm 29.94 1014 10 16 0.00 0.00

Powered by AerisWeather